RH
19 13 11 11 12 11 12 18 25 30 32 38 42 40 36 29 20 14 11 10 10 10 10 9 10 10 9 10 9 9 9 9 8 8 9 9 8 12 25 49 78 91
15 13 13 13 13 13 17 25 33 41 51 58 60 56 46 31 18 13 13 13 11 11 11 11 11 11 11 11 10 11 10 9 10 9 9 9 10 10 10 20 47 75
13 14 14 14 15 15 21 32 42 54 64 68 65 55 40 26 19 17 17 16 15 14 14 14 14 13 13 13 12 12 12 11 10 10 10 10 10 12 11 11 24 46
16 17 16 17 18 20 27 35 42 49 54 53 48 39 29 23 21 20 19 19 18 17 17 16 16 16 15 16 16 15 14 14 13 13 13 11 11 13 13 15 21 32
19 21 20 20 23 26 33 41 44 46 44 38 32 28 25 23 22 22 21 21 20 19 19 19 19 19 19 19 19 19 18 17 17 18 17 14 13 13 13 17 20 22
21 23 23 25 30 34 41 49 49 44 37 31 28 26 26 25 24 24 23 22 22 21 21 21 21 22 22 23 22 22 23 23 23 24 24 21 18 17 16 18 21 20
23 25 25 29 35 38 41 44 42 36 32 30 29 28 28 27 26 25 25 24 25 25 25 25 25 25 26 28 28 28 29 29 29 30 29 27 25 24 23 23 24 23
26 27 27 31 38 40 37 36 35 34 33 32 30 29 29 29 28 28 28 28 27 27 28 28 28 29 31 33 34 34 34 33 33 34 33 31 29 28 27 29 29 26
28 30 30 33 40 42 37 35 35 34 33 33 32 32 31 31 31 31 31 32 32 31 32 33 34 35 37 39 39 39 38 38 38 38 37 36 35 33 32 33 35 32
30 32 33 35 40 41 39 37 36 35 35 35 35 35 35 35 35 36 37 37 37 37 37 38 40 41 42 43 43 43 42 41 41 41 41 40 39 38 38 38 40 38
33 34 36 38 40 41 40 39 38 37 38 39 39 39 39 40 41 42 44 45 44 45 46 46 47 48 48 48 48 48 47 45 44 43 42 42 41 40 40 42 45 44
36 37 39 42 42 42 42 42 43 43 43 44 44 44 44 44 46 48 50 51 50 51 52 51 52 52 53 52 52 51 50 49 48 47 46 46 45 44 45 47 50 51
39 40 44 46 45 46 46 46 48 49 49 49 49 49 49 49 50 52 52 53 54 54 54 54 54 54 54 53 52 52 52 51 50 50 49 50 50 53 59 65 69 69
42 44 47 48 48 49 50 51 53 53 54 54 53 53 53 54 55 56 55 56 56 56 55 55 54 53 53 53 52 51 50 51 52 57 63 67 70 77 84 89 91 90
44 46 48 49 49 50 53 55 56 56 57 57 57 57 57 58 58 58 58 58 57 56 55 54 54 53 53 53 53 54 60 69 73 81 89 92 93 96 98 99 99 99
47 50 51 51 52 54 58 60 60 61 61 60 60 60 60 60 60 59 61 60 58 56 55 54 54 53 53 54 54 60 79 95 98 97 99 100 100 101 100 101 101 101
51 53 53 53 54 58 60 63 65 66 65 64 63 63 62 62 62 62 62 61 59 58 56 56 57 55 55 55 51 59 84 101 102 101 101 101 102 103 102 102 101 99
53 53 54 54 55 57 59 62 65 66 67 66 65 64 65 64 64 64 63 61 61 61 59 59 58 56 56 55 54 67 89 101 101 101 102 101 102 103 102 102 101 97
56 56 57 57 57 58 59 61 65 67 68 68 67 66 66 66 66 65 63 63 63 63 63 61 58 57 57 57 64 80 91 95 98 101 100 101 101 101 101 102 101 97
59 60 60 60 60 61 60 62 67 70 70 70 70 69 68 67 66 65 64 64 65 66 66 61 58 60 62 62 68 77 82 88 98 101 100 101 100 100 102 102 99 93
60 63 64 64 65 65 64 66 71 73 73 73 72 71 70 69 67 67 66 64 66 68 67 63 62 64 64 61 61 64 73 89 100 102 101 101 100 98 99 100 97 91
63 66 68 69 69 69 68 69 73 75 75 75 74 72 71 70 69 69 69 68 67 68 70 70 67 64 60 55 55 61 75 93 101 101 101 101 98 95 92 92 91 89
65 69 72 73 73 72 71 72 76 77 76 77 77 74 71 70 70 70 71 72 70 68 73 75 67 59 56 53 52 59 75 94 102 101 100 102 100 96 92 88 84 84
67 71 74 76 75 74 74 76 79 79 78 78 78 77 74 72 74 74 72 73 73 71 74 76 68 58 56 58 56 60 78 96 102 101 101 101 101 99 94 88 81 75
68 71 74 76 76 75 75 78 80 80 80 78 78 78 77 75 77 79 76 74 74 72 71 73 70 61 57 62 64 70 87 101 101 101 102 101 100 100 98 93 84 72
70 71 73 75 76 75 75 77 80 82 81 78 76 76 77 77 77 81 82 77 72 71 68 66 67 66 63 65 70 80 94 102 101 101 101 100 100 101 100 97 87 75
Wind_Speed
28 30 31 31 30 29 28 26 26 27 28 29 30 32 32 33 34 36 38 38 38 39 39 39 39 39 40 39 39 39 39 38 38 37 37 37 37 38 39 40 40 40
30 31 31 30 30 29 27 25 26 27 28 29 30 32 33 35 37 38 39 39 40 40 40 40 40 40 40 40 40 41 40 40 39 37 37 37 37 37 39 39 39 40
30 30 30 30 29 28 27 26 27 27 28 30 31 33 36 38 39 40 40 40 41 41 41 42 42 41 41 41 41 41 41 41 41 39 38 38 37 37 38 38 38 38
30 30 29 29 28 27 26 26 27 28 29 31 33 36 38 39 40 40 40 41 41 42 42 42 42 42 42 42 41 42 42 42 41 41 40 40 38 38 38 38 38 38
31 30 29 29 27 26 26 27 28 29 31 34 36 37 38 39 40 41 41 41 41 42 42 42 43 43 42 43 42 43 43 42 42 41 42 43 41 39 39 38 39 41
31 30 30 29 27 26 26 27 29 31 33 35 37 38 38 39 40 41 41 42 42 43 43 43 43 43 42 43 43 43 43 43 43 42 42 44 43 42 41 40 41 42
32 31 30 29 27 27 27 29 31 33 35 37 38 38 39 40 41 41 42 42 43 43 44 44 44 43 43 43 44 44 44 44 43 43 43 44 44 43 43 42 43 44
33 32 31 30 28 29 30 32 34 35 36 38 39 39 39 40 41 42 42 43 44 44 44 44 44 44 44 44 44 45 45 45 44 44 45 45 45 45 44 43 44 45
34 33 33 31 30 31 33 35 36 37 38 39 40 40 40 41 41 42 43 44 44 45 45 45 45 45 44 44 45 45 45 45 45 45 45 46 46 46 45 44 45 46
35 34 34 33 32 34 37 38 38 39 40 41 41 42 42 42 43 43 44 44 45 45 45 45 45 45 45 45 45 45 45 46 46 45 45 46 46 46 46 45 45 47
35 35 35 35 35 36 38 39 40 40 41 41 42 43 43 44 44 44 45 45 46 46 45 45 45 45 45 45 45 45 45 46 46 46 46 46 46 46 46 46 45 47
36 36 36 36 37 38 39 40 40 41 41 42 42 43 44 44 45 45 45 46 46 45 45 45 45 44 45 45 45 45 45 46 46 46 46 45 46 45 45 44 44 44
37 37 36 37 38 39 40 40 41 41 42 42 43 43 44 45 45 45 45 45 45 45 45 45 44 45 45 45 45 45 45 45 45 44 44 44 44 43 43 43 43 43
38 38 37 38 39 40 40 41 41 42 43 43 44 44 45 45 45 45 45 45 44 45 44 44 44 45 45 45 45 45 44 44 44 44 44 45 45 45 44 43 43 41
39 38 39 39 40 41 41 42 42 43 43 44 44 45 45 45 45 45 45 45 45 44 44 44 44 45 45 44 44 44 43 43 44 44 45 46 46 45 44 43 42 41
39 39 39 40 40 41 42 42 43 44 44 45 45 45 46 45 45 45 44 45 45 45 45 44 45 45 44 42 41 40 40 41 42 43 43 43 44 44 44 45 45 46
39 39 40 40 41 41 42 43 44 44 45 46 46 46 45 45 45 45 44 44 44 45 45 45 45 44 42 40 38 36 36 38 41 43 45 46 46 48 49 49 49 49
39 40 41 41 42 42 43 44 44 45 45 46 46 46 46 45 45 45 44 44 44 44 45 45 44 42 39 37 34 32 33 36 39 42 44 46 47 48 49 49 49 49
40 41 41 42 42 43 44 44 44 45 45 46 46 46 46 46 45 45 44 44 43 44 44 43 42 40 36 33 31 32 33 35 36 39 42 44 46 47 48 48 48 48
41 41 42 43 43 44 44 44 44 45 45 45 46 46 46 46 45 45 44 44 43 42 42 42 39 36 33 32 32 33 33 34 37 39 42 44 45 46 46 46 46 46
41 41 42 43 44 44 45 45 45 45 45 45 45 45 46 46 45 45 44 44 42 40 39 38 36 34 33 32 33 33 34 35 38 41 43 44 45 44 44 44 45 45
41 42 43 44 45 45 45 45 45 45 45 45 45 46 45 44 44 43 43 42 41 38 36 37 36 34 33 33 33 33 35 37 41 43 45 47 46 44 43 42 43 44
41 42 43 44 44 45 45 45 45 45 45 44 45 46 45 44 43 42 41 40 38 35 34 37 37 34 34 34 34 34 37 40 44 47 49 50 48 44 41 41 42 43
41 41 42 43 44 44 45 45 45 44 44 44 44 44 44 43 42 41 40 37 35 33 34 39 40 37 36 36 36 37 39 43 47 50 51 51 49 45 42 40 41 42
41 41 42 43 44 44 44 44 44 44 44 44 43 43 43 42 40 40 39 36 32 33 35 38 41 40 37 38 40 40 41 45 48 51 52 50 48 46 42 39 39 41
41 41 42 42 43 43 44 44 43 44 44 44 43 42 41 40 39 38 37 35 32 34 36 38 41 41 39 40 42 42 43 47 50 51 51 49 47 44 41 38 38 39
Wind_Direction
323 323 323 323 323 323 322 318 313 310 310 309 307 307 307 307 308 309 310 309 308 308 307 307 307 307 306 305 304 302 299 298 296 295 293 289 285 281 278 277 277 278
324 324 324 324 324 323 321 315 311 309 308 306 304 305 305 307 309 311 312 311 310 310 309 309 308 308 308 306 306 304 302 300 298 296 294 290 288 284 279 276 276 276
326 326 326 325 325 323 319 313 310 308 305 304 304 305 307 310 312 313 313 313 312 312 311 311 310 309 309 308 307 305 303 302 300 298 295 291 289 286 282 279 276 275
330 329 327 326 325 321 317 312 310 309 307 307 308 309 311 312 313 313 314 314 313 312 311 311 311 310 309 309 308 306 304 303 301 300 297 293 290 288 284 281 277 273
331 329 328 327 325 321 316 312 311 311 310 310 311 312 313 313 314 314 314 313 312 312 311 311 311 311 311 310 308 306 305 304 302 301 298 295 292 289 286 282 277 273
330 330 330 328 324 320 316 312 312 312 312 312 313 314 315 314 314 315 314 314 313 312 312 312 312 311 311 310 309 307 306 305 303 302 299 296 294 291 288 285 280 276
331 331 331 329 324 321 318 315 315 315 315 316 316 316 317 316 316 316 315 315 314 314 314 313 313 313 312 311 309 308 307 305 304 302 299 297 295 292 289 287 284 280
331 331 331 329 324 321 320 320 319 319 319 318 317 318 318 318 317 317 317 316 315 315 315 315 314 314 313 312 310 308 307 306 304 303 301 298 296 294 291 290 287 283
331 331 331 330 325 322 323 323 322 321 321 320 319 319 319 319 319 318 318 317 316 316 316 315 315 314 313 311 310 308 307 306 305 304 302 300 298 296 294 293 290 287
331 331 330 329 327 325 325 324 323 323 322 322 321 321 321 321 320 320 319 318 317 316 316 315 315 314 312 311 309 308 307 306 304 303 302 300 298 297 295 294 291 289
331 331 330 328 327 326 325 324 324 323 323 322 322 322 322 322 321 321 320 319 318 317 316 316 315 313 312 310 309 308 306 304 303 302 301 300 298 296 294 292 289 287
332 331 329 328 327 326 325 324 324 323 322 322 322 322 322 322 321 321 320 319 318 317 316 315 315 313 311 309 307 306 304 303 303 302 300 298 296 294 293 291 289 287
332 331 329 328 327 326 324 324 323 323 322 322 322 322 322 321 321 320 319 318 317 316 316 315 313 311 309 308 306 306 305 304 303 302 300 299 298 297 296 295 293 291
331 330 329 328 326 325 324 324 323 323 323 323 323 322 322 321 321 319 318 317 317 316 315 313 311 310 309 309 308 308 307 307 306 306 305 304 303 302 300 298 296 294
331 330 329 327 326 325 324 324 323 323 323 323 323 323 322 321 320 319 318 318 317 316 314 312 310 310 310 310 310 311 310 308 307 306 304 303 301 300 298 295 293 291
331 330 328 327 326 325 325 324 324 324 324 324 323 323 322 321 320 319 319 318 317 316 314 312 311 311 312 312 312 310 306 300 297 295 293 291 290 289 288 287 285 284
331 329 327 327 326 326 325 325 325 325 324 324 324 323 322 321 321 320 319 319 317 315 314 313 312 313 314 313 311 309 303 297 294 293 292 290 289 289 288 287 286 285
331 329 328 328 328 327 326 326 325 325 324 324 323 323 323 322 321 321 320 319 317 315 314 313 313 314 314 312 309 307 303 299 296 295 294 293 293 293 291 290 289 288
331 330 329 329 328 328 327 326 325 325 324 324 324 324 324 323 323 322 320 319 318 316 315 314 313 314 314 311 309 306 301 298 296 295 294 293 293 293 291 289 288 286
332 330 329 328 329 328 327 327 326 325 325 326 326 326 325 324 323 322 320 319 318 317 316 314 313 315 315 313 310 306 301 300 300 298 296 294 293 292 290 287 285 283
332 330 329 329 329 330 329 328 327 326 327 328 328 326 326 325 324 322 320 319 318 318 317 314 315 318 317 313 310 308 306 305 303 302 300 298 296 294 291 287 284 282
333 331 330 330 330 331 330 329 328 328 329 330 329 327 326 325 324 322 321 319 318 319 319 317 317 319 318 315 313 313 311 309 307 306 304 302 300 296 292 287 283 280
334 332 331 331 331 331 330 329 329 329 330 332 330 328 327 325 324 323 321 320 319 320 322 322 320 321 322 319 317 316 314 313 312 309 306 303 301 298 293 286 281 278
334 333 332 332 332 332 331 330 330 331 332 332 331 329 327 326 326 324 322 321 321 322 326 326 325 326 326 324 322 320 317 315 314 311 307 304 301 298 293 286 279 275
334 334 333 333 333 332 331 331 331 332 333 333 331 330 328 327 327 327 323 323 325 326 328 329 330 329 328 328 326 321 317 318 317 313 308 303 300 297 293 287 279 275
335 335 334 334 333 332 332 332 333 334 334 333 332 331 330 329 330 329 327 326 328 329 330 331 331 331 331 330 327 322 321 323 321 314 309 304 300 296 291 285 280 277